{"data":{"norad_id":62196,"intl_designator":"2024-229E","name":"STARLINK-32682","alt_names":[],"object_type":"PAYLOAD","status":"ACTIVE","operator":null,"country":"US","launch_date":"2024-12-04","launch_site_code":"AFETR","launch_vehicle":null,"mission":null,"orbit_class":"UNKNOWN","rcs_meters":null,"size_class":null,"mass_kg":null,"dimensions":null,"purposes":["comms"],"wikipedia_slug":null,"has_3d_model":false,"image_url":null,"decayed_at":null,"tle_current":{"epoch":"2026-05-24T11:13:50.359008Z","epoch_age_seconds":117030,"freshness":"FRESH","line1":"1 62196U 24229E   26144.46794397  .00013091  00000+0  48415-3 0  9997","line2":"2 62196  43.0032 170.0897 0001691 274.0012  86.0647 15.27597317 82528","mean_motion":15.27597317,"eccentricity":0.0001691,"inclination_deg":43.0032,"raan_deg":170.0897,"arg_perigee_deg":274.0012,"mean_anomaly_deg":86.0647,"bstar":0.00048415,"rev_number":8252,"period_min":94.265680096111,"perigee_km":481.83702540122,"apogee_km":484.15746100227,"semimajor_km":6861.1342432017,"source":"CELESTRAK","updated_at":"2026-05-25T13:38:19.606536Z"}}}